Dmitrov, Russia
Current Conditions -  °F | °C
As of 4:00 PM on Saturday 25 Oct 2014 (Local Time) from UUEE Reporting Station
Clear Clear  
Wind Chill: 21°   Ceiling: Unl
Heat Index: 27°   Visibility: 6mi
Dew Point: 14°   Wind: 4mph
Humidity: 59%   Direction: NA
Pressure: 30.62"   Gusts: NA
Location:  56.35°N, 37.52°E
Report Text: UUEE 251300Z VRB02MPS CAVOK M03/M10 Q1037 75000062 25150051NOSIG
Loading
Personal Weather Stations






























Interactive Weather Map
Tropical Storm Tracking
New forecast layout! Learn more

10-Day Weather Forecast

Advertisements
Track Severe Weather on mobile